Location: Lower Kingswood
(51.2667°N, 0.2167°W)
Time: 12:31:49
(UTC+00:00)

Cosmos 1092 Rocket - Pass Details

Date: 26 September 2023
Orbit: 953 x 995 km, 82.9° (Epoch: 11 December)

Event Time Altitude Azimuth Distance (km) Brightness Sun altitude
Exits shadow 03:04:11 57° 266° (W) 1,163 4.0 -25.7°
Maximum altitude 03:04:39 59° 285° (WNW) 1,148 4.1 -25.7°
Drops below altitude 10° 03:10:57 10° 4° (N) 2,775 6.8 -24.9°
Sets 03:13:33 0° 9° (N) 3,726 7.6 -24.5°
